#timestamp,LO_Frequency,Hit,StdDev 
1611054015.9,286047017.9,N
1611054035.7,286047023.2,N
1611054055.6,286047023.7,N
1611054075.4,286047022.5,N
1611054095.2,286047022.9,N
1611054115.1,286047023.3,N
1611054116.0,286047023.3,Y
1611054135.8,286047002.4,P
1611054155.7,286046997.1,N
1611054175.5,286046996.2,N
1611054195.3,286046996.0,N
1611054215.2,286046990.1,N
1611054235.0,286046987.7,N
1611054235.9,286046987.7,N
1611054255.8,286046983.9,N
1611054275.6,286046983.0,N
1611054295.4,286046983.6,N
1611054315.3,286046980.8,N
1611054335.1,286046981.9,N
1611054355.8,286046979.1,N
1611054375.7,286046979.7,N
1611054395.5,286046983.3,N
1611054415.4,286046980.5,N
1611054435.2,286046981.8,N
1611054455.0,286046975.9,N
1611054455.9,286046975.9,N
1611054475.8,286046977.6,N
1611054495.6,286046975.7,N
1611054515.5,286046978.6,N
1611054535.3,286046976.1,N
1611054555.1,286046974.2,N
1611054575.9,286046972.7,N
1611054595.7,286046972.9,N
1611054615.5,286046975.2,N
1611054635.4,286046974.2,N
1611054655.2,286046975.4,N
1611054675.1,286046974.7,N
1611054676.0,286046974.7,Y
1611054695.8,286046994.6,P
1611054715.6,286046991.9,N
1611054735.5,286046992.1,N
1611054755.3,286046994.5,N
1611054775.2,286046992.6,N
1611054795.9,286046990.4,N
1611054815.7,286046991.1,N
1611054835.6,286046991.4,N
1611054855.4,286046992.6,N
1611054875.2,286046994.6,N
1611054895.1,286046994.3,N
1611054896.0,286046994.3,N
1611054915.8,286046999.2,N
1611054935.7,286046999.4,N
1611054955.5,286046995.5,N
1611054975.3,286046996.4,N
1611054995.2,286046992.1,N
1611055015.0,286046992.3,N
1611055015.9,286046992.3,N
1611055035.8,286046990.5,N
1611055055.6,286046991.3,N
1611055075.4,286046988.7,Y
1611055095.3,286046995.8,P
1611055115.1,286046993.3,P
1611055135.8,286046997.6,N
1611055155.7,286046997.3,N
1611055175.5,286046995.3,N
1611055195.4,286047001.9,N
1611055215.2,286047007.0,N
1611055235.0,286047007.2,N
1611055235.9,286047007.2,N
1611055255.8,286047001.6,N
1611055275.6,286047004.2,N
1611055295.5,286047007.3,N
1611055315.3,286047006.9,N
1611055335.1,286047005.7,N
1611055355.9,286047002.8,N
1611055375.7,286047000.8,N
1611055395.5,286046999.1,N
1611055415.4,286046997.4,N
1611055435.2,286046996.0,N
1611055455.1,286046994.0,N
1611055456.0,286046994.0,N
1611055475.8,286046992.2,N
1611055495.6,286046993.2,N
1611055515.5,286046993.2,N
1611055535.3,286046990.5,N
1611055555.1,286046991.5,N
1611055575.9,286046989.3,N
1611055595.7,286046988.9,N
1611055615.6,286046986.3,N
1611055635.4,286046991.6,N
1611055655.2,286046993.2,N
1611055675.1,286046994.2,N
1611055676.0,286046994.2,N
1611055695.8,286046994.8,N
1611055715.7,286046992.9,N
1611055735.5,286046992.9,N
1611055755.3,286046993.2,N
1611055775.2,286046990.2,N
1611055795.0,286046990.1,N
1611055795.9,286046990.1,N
1611055815.8,286046991.1,N
1611055835.6,286046988.7,N
1611055855.4,286046989.9,N
1611055875.3,286046988.2,N
1611055895.1,286046989.7,N
1611055915.8,286046991.4,N
1611055935.7,286046991.6,Y
1611055955.5,286046997.4,P
1611055975.4,286046996.7,N
1611055995.2,286046999.6,N
1611056015.0,286046996.7,N
1611056015.9,286046996.7,N
1611056035.8,286046997.3,N
1611056055.6,286046995.0,N
1611056075.5,286046995.4,N
1611056095.3,286046996.0,N
1611056115.1,286046996.1,N
1611056135.9,286046993.3,Y
1611056155.7,286046998.9,P
1611056175.6,286047001.1,N
1611056195.4,286047004.2,N
1611056215.2,286047004.0,N
1611056235.1,286047006.7,N
1611056236.0,286047006.7,N
1611056255.8,286047006.6,N
1611056275.6,286047005.2,N
1611056295.5,286047005.8,N
1611056315.3,286047003.2,N
1611056335.2,286047004.2,N
1611056355.9,286047005.6,N
1611056375.7,286047004.0,N
1611056395.6,286047004.3,N
1611056415.4,286047001.4,N
1611056435.2,286047004.0,N
1611056455.1,286047002.1,N
1611056456.0,286047002.1,N
1611056475.8,286047002.4,N
1611056495.7,286046999.7,N
1611056515.5,286047002.6,N
1611056535.3,286047002.4,N
1611056555.2,286047001.7,N
1611056575.0,286047000.2,N
1611056575.9,286047000.2,N
1611056595.8,286046998.7,N
1611056615.6,286046999.1,N
1611056635.4,286046999.4,N
1611056655.3,286047001.2,N
1611056675.1,286046998.1,N
1611056695.8,286046998.5,N
1611056715.7,286047000.8,N
1611056735.5,286047000.2,N
1611056755.4,286047000.4,N
1611056775.2,286047001.2,N
1611056795.0,286047001.2,N
1611056795.9,286047001.2,N
1611056815.8,286047002.8,N
1611056835.6,286047001.9,N
1611056855.5,286047000.5,N
1611056875.3,286047002.4,N
1611056895.1,286046999.9,N
1611056915.9,286047000.4,N
1611056935.7,286046999.6,N
1611056955.5,286046997.7,N
1611056975.4,286046998.0,N
1611056995.2,286046996.6,N
1611057015.1,286046996.8,N
1611057016.0,286046996.8,N
1611057035.8,286046998.4,N
1611057055.6,286046998.1,N
1611057075.5,286046998.4,N
1611057095.3,286047000.7,N
1611057115.2,286046996.6,N
1611057135.9,286046996.9,N
1611057155.7,286046996.7,N
1611057175.6,286046996.9,N
1611057195.4,286046995.0,N
1611057215.3,286046997.6,N
1611057235.1,286046999.5,N
1611057236.0,286046999.5,N
1611057255.8,286046997.3,N
1611057275.7,286046993.3,Y
1611057295.5,286046997.0,P
1611057315.3,286046999.3,N
1611057335.2,286046999.2,N
1611057355.0,286046998.4,N
1611057355.9,286046998.4,N
1611057375.8,286046999.3,N
1611057395.6,286046998.6,N
1611057415.4,286046998.2,N
1611057435.3,286046999.1,N
1611057455.1,286046997.4,Y
1611057475.9,286046997.2,P
1611057495.7,286046994.9,P
1611057515.5,286046995.9,N
1611057535.4,286046994.0,Y
1611057555.2,286047002.7,P
1611057575.1,286047004.2,N
1611057576.0,286047004.2,N
1611057595.8,286047003.8,N
